FW4008 Weather Reports


Display with metric or nautical units.
time (UTC)temp
F
wind
direction
speed
MPH
gust
MPH
rain 1hr
in
rain 24hr
in
rain mn
in
humidity
%
barometer
mb
20260506194946 76 12 1.0 6.0 0.00 0.00 0.00 41 1010.4
20260506194446 76 10 2.0 8.0 0.00 0.00 0.00 41 1010.4
20260506193946 75 342 1.0 8.0 0.00 0.00 0.00 41 1010.6
20260506193446 74 299 2.0 8.0 0.00 0.00 0.00 40 1010.7
20260506192946 74 296 2.0 8.0 0.00 0.00 0.00 41 1010.7
20260506192446 74 285 1.0 8.0 0.00 0.00 0.00 41 1010.8
20260506191946 73 333 1.0 5.0 0.00 0.00 0.00 42 1010.9
20260506190446 73 302 1.0 4.0 0.00 0.00 0.00 44 1011.3
20260506185946 72 265 1.0 6.0 0.00 0.00 0.00 43 1011.2
20260506184946 72 161 0.0 7.0 0.00 0.00 0.00 43 1011.1
20260506184446 72 154 1.0 9.0 0.00 0.00 0.00 43 1011.1
20260506183446 71 164 2.0 7.0 0.00 0.00 0.00 43 1011.0
20260506182946 70 163 1.0 7.0 0.00 0.00 0.00 43 1011.0
20260506181447 70 161 1.0 10.0 0.00 0.00 0.00 41 1011.1
20260506180446 69 151 1.0 8.0 0.00 0.00 0.00 42 1011.2
20260506175946 68 148 2.0 9.0 0.00 0.00 0.00 41 1011.2
20260506175446 68 154 1.0 9.0 0.00 0.00 0.00 42 1011.4
20260506174945 68 176 1.0 8.0 0.00 0.00 0.00 41 1011.3
20260506173447 68 172 2.0 8.0 0.00 0.00 0.00 41 1011.4
20260506172946 68 173 2.0 8.0 0.00 0.00 0.00 41 1011.6
20260506172446 67 161 2.0 8.0 0.00 0.00 0.00 41 1011.7
20260506171946 67 162 2.0 8.0 0.00 0.00 0.00 42 1011.7
20260506171446 66 163 2.0 10.0 0.00 0.00 0.00 41 1011.7
20260506170946 66 163 2.0 10.0 0.00 0.00 0.00 40 1011.7
20260506170446 66 156 1.0 7.0 0.00 0.00 0.00 40 1011.8
20260506165946 65 144 2.0 7.0 0.00 0.00 0.00 39 1011.9
20260506165446 65 148 2.0 7.0 0.00 0.00 0.00 39 1011.8
20260506164446 65 169 1.0 5.0 0.00 0.00 0.00 39 1011.9
20260506163946 64 163 0.0 5.0 0.00 0.00 0.00 39 1012.0
20260506163446 64 146 0.0 5.0 0.00 0.00 0.00 41 1012.0
20260506162946 63 145 0.0 5.0 0.00 0.00 0.00 42 1011.9
20260506161946 62 95 0.0 1.0 0.00 0.00 0.00 43 1011.9
20260506161446 61 90 0.0 6.0 0.00 0.00 0.00 43 1011.9
20260506160945 60 106 1.0 6.0 0.00 0.00 0.00 45 1012.0
20260506160447 60 167 1.0 5.0 0.00 0.00 0.00 43 1012.0
20260506155946 60 166 1.0 5.0 0.00 0.00 0.00 43 1012.0
20260506154946 59 154 1.0 5.0 0.00 0.00 0.00 46 1012.0
20260506153945 58 146 1.0 4.0 0.00 0.00 0.00 48 1012.1
20260506152946 57 153 0.0 3.0 0.00 0.00 0.00 51 1012.1
20260506152446 56 131 0.0 5.0 0.00 0.00 0.00 51 1012.2
20260506151946 56 114 0.0 5.0 0.00 0.00 0.00 50 1012.1
20260506151446 55 26 0.0 2.0 0.00 0.00 0.00 55 1012.1
20260506150946 55 58 0.0 3.0 0.00 0.00 0.00 55 1012.2
20260506150446 55 58 0.0 3.0 0.00 0.00 0.00 56 1012.1
20260506145946 54 67 0.0 4.0 0.00 0.00 0.00 57 1012.0
20260506145445 54 67 0.0 4.0 0.00 0.00 0.00 58 1012.1
20260506144947 53 0 0.0 0.0 0.00 0.00 0.00 59 1012.1
20260506143946 53 133 0.0 2.0 0.00 0.00 0.00 60 1012.1
20260506143446 52 128 0.0 1.0 0.00 0.00 0.00 61 1012.1
20260506142946 52 143 0.0 4.0 0.00 0.00 0.00 62 1012.1
20260506142446 51 143 0.0 4.0 0.00 0.00 0.00 63 1012.1
20260506141946 51 141 0.0 1.0 0.00 0.00 0.00 64 1012.1
20260506141446 51 0 0.0 0.0 0.00 0.00 0.00 65 1012.2
20260506140446 50 221 0.0 3.0 0.00 0.00 0.00 66 1012.2
20260506135945 50 237 0.0 2.0 0.00 0.00 0.00 67 1012.3
20260506135446 50 0 0.0 0.0 0.00 0.00 0.00 68 1012.2
20260506134946 49 0 0.0 0.0 0.00 0.00 0.00 67 1012.2
20260506134446 49 236 0.0 2.0 0.00 0.00 0.00 66 1012.2
20260506133445 49 0 0.0 0.0 0.00 0.00 0.00 66 1012.2
20260506132945 49 0 0.0 0.0 0.00 0.00 0.00 66 1012.1
20260506132445 48 240 0.0 1.0 0.00 0.00 0.00 68 1012.0
20260506131446 48 240 0.0 2.0 0.00 0.00 0.00 70 1012.0
20260506130446 47 0 0.0 0.0 0.00 0.00 0.00 71 1012.0
20260506125947 47 0 0.0 0.0 0.00 0.00 0.00 72 1011.9
20260506125446 47 0 0.0 0.0 0.00 0.00 0.00 72 1011.9
20260506124946 47 0 0.0 0.0 0.00 0.00 0.00 72 1011.9
20260506124446 47 0 0.0 0.0 0.00 0.00 0.00 73 1011.9
20260506123446 47 0 0.0 0.0 0.00 0.00 0.00 72 1011.9
20260506122947 48 0 0.0 0.0 0.00 0.00 0.00 70 1011.8
20260506122445 48 0 0.0 0.0 0.00 0.00 0.00 69 1011.7
20260506121946 48 0 0.0 0.0 0.00 0.00 0.00 69 1011.7
20260506121446 48 0 0.0 0.0 0.00 0.00 0.00 69 1011.6
20260506120946 48 0 0.0 0.0 0.00 0.00 0.00 69 1011.6
20260506120446 48 0 0.0 0.0 0.00 0.00 0.00 69 1011.6
20260506115948 48 0 0.0 0.0 0.00 0.00 0.00 69 1011.5
20260506115445 49 0 0.0 0.0 0.00 0.00 0.00 68 1011.6
20260506114945 49 0 0.0 0.0 0.00 0.00 0.00 68 1011.5
20260506114446 49 0 0.0 0.0 0.00 0.00 0.00 68 1011.6
20260506113945 49 0 0.0 0.0 0.00 0.00 0.00 68 1011.5
20260506113446 49 0 0.0 0.0 0.00 0.00 0.00 68 1011.6
20260506111946 49 0 0.0 0.0 0.00 0.00 0.00 68 1011.6
20260506111446 49 0 0.0 0.0 0.00 0.00 0.00 68 1011.6
20260506110446 49 0 0.0 0.0 0.00 0.00 0.00 68 1011.6
20260506105947 50 0 0.0 0.0 0.00 0.00 0.00 68 1011.5
20260506105446 50 0 0.0 0.0 0.00 0.00 0.00 68 1011.5
20260506104946 50 0 0.0 0.0 0.00 0.00 0.00 67 1011.5
20260506104446 50 0 0.0 0.0 0.00 0.00 0.00 67 1011.5
20260506103946 50 0 0.0 0.0 0.00 0.00 0.00 68 1011.5
20260506103446 49 0 0.0 0.0 0.00 0.00 0.00 69 1011.4
20260506101946 50 0 0.0 0.0 0.00 0.00 0.00 70 1011.5
20260506101446 50 0 0.0 0.0 0.00 0.00 0.00 70 1011.4
20260506100946 50 0 0.0 0.0 0.00 0.00 0.00 71 1011.5
20260506095446 50 0 0.0 0.0 0.00 0.00 0.00 70 1011.4
20260506094946 50 0 0.0 0.0 0.00 0.00 0.00 69 1011.4
20260506093946 50 0 0.0 0.0 0.00 0.00 0.00 69 1011.3
20260506093446 50 0 0.0 0.0 0.00 0.00 0.00 69 1011.3
20260506092947 50 0 0.0 0.0 0.00 0.00 0.00 69 1011.3
20260506092446 50 0 0.0 0.0 0.00 0.00 0.00 69 1011.4
20260506091946 51 0 0.0 0.0 0.00 0.00 0.00 69 1011.4
20260506091446 51 0 0.0 0.0 0.00 0.00 0.00 69 1011.3
20260506090946 51 0 0.0 0.0 0.00 0.00 0.00 69 1011.3
20260506090445 51 0 0.0 0.0 0.00 0.00 0.00 70 1011.4
20260506085946 52 0 0.0 0.0 0.00 0.00 0.00 70 1011.4
20260506085445 52 0 0.0 0.0 0.00 0.00 0.00 70 1011.3
20260506084446 52 0 0.0 0.0 0.00 0.00 0.00 69 1011.2
20260506083946 53 0 0.0 0.0 0.00 0.00 0.00 67 1011.2
20260506082946 54 0 0.0 0.0 0.00 0.00 0.00 64 1011.3
20260506082446 54 0 0.0 0.0 0.00 0.00 0.00 64 1011.2
20260506081946 54 0 0.0 0.0 0.00 0.00 0.00 62 1011.2
20260506081445 55 0 0.0 0.0 0.00 0.00 0.00 62 1011.1
20260506080946 55 0 0.0 0.0 0.00 0.00 0.00 61 1011.0
20260506080446 55 0 0.0 0.0 0.00 0.00 0.00 62 1010.9
20260506073446 55 0 0.0 0.0 0.00 0.00 0.00 65 1010.8
20260506072946 55 0 0.0 0.0 0.00 0.00 0.00 64 1010.8
20260506072446 55 0 0.0 0.0 0.00 0.00 0.00 63 1010.8
20260506071945 55 0 0.0 0.0 0.00 0.00 0.00 63 1010.8
20260506070946 55 0 0.0 0.0 0.00 0.00 0.00 63 1010.7
20260506070447 55 0 0.0 0.0 0.00 0.00 0.00 62 1010.8
20260506062446 56 148 0.0 3.0 0.00 0.00 0.00 59 1010.5
20260506061947 56 149 0.0 3.0 0.00 0.00 0.00 60 1010.5
20260506061446 56 149 0.0 2.0 0.00 0.00 0.00 61 1010.3
20260506060946 56 149 0.0 2.0 0.00 0.00 0.00 61 1010.3
20260506060446 57 0 0.0 0.0 0.00 0.00 0.00 61 1010.2
20260506050946 59 149 0.0 1.0 0.00 0.00 0.00 54 1009.6
20260506050446 60 146 0.0 1.0 0.00 0.00 0.00 53 1009.6
20260506044946 60 173 0.0 2.0 0.00 0.00 0.00 50 1009.5
20260506044446 61 173 0.0 2.0 0.00 0.00 0.00 48 1009.4
20260506043946 61 173 0.0 2.0 0.00 0.00 0.00 47 1009.3
20260506043446 60 0 0.0 0.0 0.00 0.00 0.00 47 1009.3
20260506042946 60 0 0.0 0.0 0.00 0.00 0.00 48 1009.3
20260506042445 61 0 0.0 0.0 0.00 0.00 0.00 47 1009.3
20260506041945 61 0 0.0 0.0 0.00 0.00 0.00 46 1009.2
20260506040946 62 0 0.0 0.0 0.00 0.00 0.00 45 1009.2
20260506040446 62 0 0.0 0.0 0.00 0.00 0.00 43 1009.1
20260506035446 62 0 0.0 0.0 0.00 0.00 0.00 43 1009.1
20260506034446 63 0 0.0 0.0 0.00 0.00 0.00 42 1009.1
20260506033946 63 0 0.0 0.0 0.00 0.00 0.00 41 1009.1
20260506033446 64 0 0.0 0.0 0.00 0.00 0.00 42 1009.1
20260506032946 65 0 0.0 0.0 0.00 0.00 0.00 41 1009.0
20260506032446 65 0 0.0 0.0 0.00 0.00 0.00 39 1009.0
20260506031946 66 0 0.0 0.0 0.00 0.00 0.00 37 1009.1
20260506031446 66 0 0.0 0.0 0.00 0.00 0.00 36 1008.9
20260506030946 67 0 0.0 0.0 0.00 0.00 0.00 35 1008.9
20260506030446 68 0 0.0 0.0 0.00 0.00 0.00 35 1008.9
20260506025945 68 0 0.0 0.0 0.00 0.00 0.00 33 1008.9
20260506025445 69 0 0.0 0.0 0.00 0.00 0.00 33 1008.8
20260506024946 70 0 0.0 0.0 0.00 0.00 0.00 31 1008.8
20260506023945 70 0 0.0 0.0 0.00 0.00 0.00 29 1008.8
20260506023446 70 0 0.0 0.0 0.00 0.00 0.00 28 1008.8
20260506022947 71 0 0.0 0.0 0.00 0.00 0.00 28 1008.8
20260506022446 71 0 0.0 0.0 0.00 0.00 0.00 28 1008.9
20260506021946 71 0 0.0 0.0 0.00 0.00 0.00 28 1008.8
20260506020445 72 0 0.0 0.0 0.00 0.00 0.00 27 1008.8
20260506015946 72 0 0.0 0.0 0.00 0.00 0.00 25 1008.7
20260506015446 72 71 0.0 4.0 0.00 0.00 0.00 26 1008.8
20260506014947 73 72 0.0 4.0 0.00 0.00 0.00 26 1008.7
20260506014446 73 59 0.0 4.0 0.00 0.00 0.00 26 1008.8
20260506013946 73 57 0.0 4.0 0.00 0.00 0.00 25 1008.7
20260506012945 73 0 0.0 0.0 0.00 0.00 0.00 27 1008.7
20260506012445 73 89 0.0 4.0 0.00 0.00 0.00 25 1008.7
20260506011945 73 139 1.0 4.0 0.00 0.00 0.00 27 1008.8
20260506011446 72 115 1.0 8.0 0.00 0.00 0.00 26 1008.8
20260506010946 73 92 1.0 8.0 0.00 0.00 0.00 25 1008.8
20260506010446 74 91 1.0 7.0 0.00 0.00 0.00 24 1008.8
20260506005946 74 62 1.0 10.0 0.00 0.00 0.00 24 1008.8
20260506005446 74 63 0.0 10.0 0.00 0.00 0.00 26 1009.0
20260506004946 74 69 2.0 10.0 0.00 0.00 0.00 25 1008.9
20260506004446 74 59 3.0 10.0 0.00 0.00 0.00 25 1009.0
20260506003946 74 52 2.0 9.0 0.00 0.00 0.00 24 1008.9
20260506002946 74 66 2.0 8.0 0.00 0.00 0.00 24 1008.9
20260506002446 74 58 3.0 9.0 0.00 0.00 0.00 24 1008.9
20260506001946 74 48 3.0 9.0 0.00 0.00 0.00 23 1009.1
20260506001446 74 32 3.0 9.0 0.00 0.00 0.00 24 1009.1
20260506000945 74 34 4.0 11.0 0.00 0.00 0.00 24 1009.1
20260506000446 75 41 6.0 11.0 0.00 0.00 0.00 24 1009.2
20260505235946 75 41 5.0 11.0 0.00 0.00 0.00 23 1009.3
20260505235446 75 40 5.0 11.0 0.00 0.00 0.00 23 1009.4
20260505234946 75 42 3.0 11.0 0.00 0.00 0.00 23 1009.5
20260505233946 75 26 5.0 13.0 0.00 0.00 0.00 25 1009.5
20260505233446 74 22 5.0 14.0 0.00 0.00 0.00 25 1009.6
20260505232946 75 28 3.0 14.0 0.00 0.00 0.00 24 1009.5
20260505232446 74 33 1.0 10.0 0.00 0.00 0.00 25 1009.4
20260505231946 74 27 4.0 12.0 0.00 0.00 0.00 24 1009.4
20260505231446 74 28 3.0 12.0 0.00 0.00 0.00 25 1009.6
20260505230946 74 21 2.0 12.0 0.00 0.00 0.00 25 1009.5
20260505230446 74 43 4.0 13.0 0.00 0.00 0.00 24 1009.5
20260505225946 74 58 2.0 13.0 0.00 0.00 0.00 26 1009.8
20260505225446 74 23 1.0 12.0 0.00 0.00 0.00 26 1009.9
20260505224946 74 31 4.0 13.0 0.00 0.00 0.00 26 1009.9
20260505224447 74 24 5.0 13.0 0.00 0.00 0.00 25 1009.9
20260505223946 74 359 2.0 10.0 0.00 0.00 0.00 25 1010.0
20260505223446 73 355 2.0 12.0 0.00 0.00 0.00 26 1010.0
20260505222946 74 14 3.0 14.0 0.00 0.00 0.00 26 1010.1
20260505222446 74 21 5.0 14.0 0.00 0.00 0.00 25 1010.0
20260505221446 74 351 4.0 12.0 0.00 0.00 0.00 25 1010.2
20260505220445 74 333 3.0 12.0 0.00 0.00 0.00 26 1010.2
20260505215446 74 6 4.0 15.0 0.00 0.00 0.00 25 1010.2
20260505214946 74 6 5.0 15.0 0.00 0.00 0.00 25 1010.3
20260505214445 74 352 4.0 14.0 0.00 0.00 0.00 25 1010.3
20260505213946 74 342 4.0 14.0 0.00 0.00 0.00 26 1010.4
20260505213446 74 318 4.0 13.0 0.00 0.00 0.00 28 1010.2
20260505212946 74 322 6.0 16.0 0.00 0.00 0.00 25 1010.3
20260505212447 74 321 5.0 16.0 0.00 0.00 0.00 27 1010.4
20260505211946 74 333 3.0 12.0 0.00 0.00 0.00 27 1010.5
20260505210946 74 350 2.0 11.0 0.00 0.00 0.00 27 1010.5
20260505210445 74 13 3.0 10.0 0.00 0.00 0.00 28 1010.5
20260505205946 74 4 5.0 11.0 0.00 0.00 0.00 27 1010.6
20260505205446 74 339 5.0 14.0 0.00 0.00 0.00 28 1010.6
20260505204446 73 303 3.0 10.0 0.00 0.00 0.00 29 1010.6
20260505203946 73 305 1.0 10.0 0.00 0.00 0.00 29 1010.7
20260505203446 73 296 1.0 11.0 0.00 0.00 0.00 29 1010.7
20260505202446 73 346 4.0 12.0 0.00 0.00 0.00 28 1010.7
20260505201945 73 347 3.0 12.0 0.00 0.00 0.00 29 1010.7
20260505201445 73 347 1.0 12.0 0.00 0.00 0.00 29 1010.7
20260505200946 73 346 1.0 8.0 0.00 0.00 0.00 30 1010.7
20260505200446 73 330 2.0 11.0 0.00 0.00 0.00 28 1010.6
20260505195446 73 25 3.0 11.0 0.00 0.00 0.00 30 1010.7